Skip Page Navigation
NASA JPL Caltech
NASA Logo - Jet Propulsion Laboratory + View the NASA Portal
+ Near-Earth Object (NEO) Program
Search JPL
JPL Home Earth Solar System Stars & Galaxies Technology
JPL Solar System Dynamics
BODIES ORBITS EPHEMERIDES TOOLS PHYSICAL DATA DISCOVERY FAQ SITE MAP
JPL Small-Body Database Browser
Search: [ help ]  
(2008 WM64)
Classification: Apollo [NEO, PHA]          SPK-ID: 3440585
Ephemeris | Orbit Diagram | Orbital Elements | Physical Parameters | Close-Approach Data ]

[ hide orbit diagram ]
Orbit Diagram
Note: Make sure you have Java enabled on your browser to see the applet. This applet is provided as a 3D orbit visualization tool. The applet was implemented using 2-body methods, and hence should not be used for determining accurate long-term trajectories (over several years or decades) or planetary encounter circumstances. For accurate long-term ephemerides, please instead use our Horizons system.
Orbit Viewer

Additional Notes: the orbits shown in the applet are color coded. The planets are white lines, and the asteroid/comet is a blue line. The bright white line indicates the portion of the orbit that is above the ecliptic plane, and the darker portion is below the ecliptic plane. Likewise for the asteroid/comet orbit, the light blue indicates the portion above the ecliptic plane, and the dark blue the portion below the ecliptic plane.

Orbit Viewer applet originally written and kindly provided by Osamu Ajiki (AstroArts), and further modified by Ron Baalke (JPL).


Orbital Elements at Epoch 2456400.5 (2013-Apr-18.0) TDB
Reference: JPL 20 (heliocentric ecliptic J2000)
 Element Value Uncertainty (1-sigma)   Units 
e .1069160122570229 2.0602e-07  
a 1.005241861525647 2.7669e-08 AU
q .8977654103374981 2.0222e-07 AU
i 33.52536638970901 5.5475e-05 deg
node 91.49919797516969 3.0808e-05 deg
peri 256.9695334798161 8.6707e-05 deg
M 219.0873742123131 8.5199e-05 deg
tp 2456544.595919406369
(2013-Sep-09.09591941)
8.9756e-05 JED
period 368.1325977450193
1.01
1.5199e-05
4.161e-08
d
yr
n .9779085096108434 4.0375e-08 deg/d
Q 1.112718312713795 3.0627e-08 AU
  Orbit Determination Parameters
   # obs. used (total)      70  
   data-arc span      1476 days (4.04 yr)  
   first obs. used      2008-11-24  
   last obs. used      2012-12-09  
   planetary ephem.      DE405  
   SB-pert. ephem.      SB405-CPV-2  
   condition code      1  
   fit RMS      .60014  
   data source      ORB  
   producer      Otto Matic  
   solution date      2012-Dec-10 00:54:57  

Additional Information
 Earth MOID = .0335847 AU 
 T_jup = 5.905 
[ show covariance matrix ]

Ephemeris | Orbit Diagram | Orbital Elements | Physical Parameters | Close-Approach Data ]

Physical Parameter Table
Parameter Symbol Value Units Sigma Reference Notes
absolute magnitude H 20.573 mag .42795 20 autocmod 2.5b

[ show close-approach data ]
Ephemeris | Orbit Diagram | Orbital Elements | Physical Parameters | Close-Approach Data ]
ABOUT SSD CREDITS/AWARDS PRIVACY/COPYRIGHT GLOSSARY LINKS
FirstGov 2013-May-18 10:53 UT
(server date/time)  
NASA Home Page
Site Manager:   Donald K. Yeomans
Webmaster  Alan B. Chamberlin